| time (UTC) | temp C | wind direction | speed KPH | gust KPH | rain 1hr cm | rain 24hr cm | rain mn cm | humidity % | barometer mb |
| 20260507134404 | 7 | 117 | 1.6 | 4.8 | 0.00 | 1.98 | 0.00 | 98 | 1009.7 |
| 20260507133900 | 7 | 117 | 1.6 | 4.8 | 0.00 | 1.98 | 0.00 | 99 | 1009.7 |
| 20260507133402 | 7 | 117 | 3.2 | 4.8 | 0.00 | 1.98 | 0.00 | 99 | 1009.7 |
| 20260507132859 | 7 | 117 | 3.2 | 9.7 | 0.00 | 1.98 | 0.00 | 99 | 1009.8 |
| 20260507132356 | 7 | 117 | 3.2 | 9.7 | 0.00 | 1.98 | 0.00 | 100 | 1009.7 |
| 20260507131858 | 7 | 119 | 3.2 | 9.7 | 0.00 | 1.98 | 0.00 | 100 | 1009.7 |
| 20260507131356 | 7 | 89 | 4.8 | 9.7 | 0.00 | 1.98 | 0.00 | 100 | 1009.8 |
| 20260507130854 | 7 | 96 | 4.8 | 9.7 | 0.00 | 1.98 | 0.00 | 100 | 1009.6 |
| 20260507130356 | 7 | 89 | 3.2 | 8.0 | 0.00 | 1.98 | 0.00 | 100 | 1009.6 |
| 20260507125849 | 7 | 129 | 3.2 | 4.8 | 0.00 | 1.98 | 0.00 | 100 | 1009.7 |
| 20260507125619 | 6 | 132 | 1.6 | 4.8 | 0.00 | 1.98 | 0.00 | 100 | 1009.8 |
| 20260507124849 | 6 | 132 | 1.6 | 3.2 | 0.00 | 1.98 | 0.00 | 100 | 1009.9 |
| 20260507124348 | 6 | 132 | 1.6 | 3.2 | 0.00 | 1.98 | 0.00 | 100 | 1009.8 |
| 20260507123849 | 6 | 132 | 1.6 | 3.2 | 0.00 | 1.98 | 0.00 | 100 | 1009.9 |
| 20260507123350 | 6 | 132 | 1.6 | 3.2 | 0.00 | 1.98 | 0.00 | 100 | 1009.8 |
| 20260507122844 | 5 | 132 | 1.6 | 4.8 | 0.00 | 1.98 | 0.00 | 99 | 1009.8 |
| 20260507122343 | 5 | 132 | 3.2 | 4.8 | 0.00 | 1.98 | 0.00 | 99 | 1009.9 |
| 20260507121840 | 6 | 132 | 3.2 | 4.8 | 0.00 | 1.98 | 0.00 | 100 | 1009.8 |
| 20260507121342 | 6 | 132 | 3.2 | 6.4 | 0.00 | 1.98 | 0.00 | 100 | 1009.9 |
| 20260507120840 | 6 | 132 | 3.2 | 6.4 | 0.00 | 1.98 | 0.00 | 100 | 1009.9 |
| 20260507120342 | 6 | 121 | 1.6 | 6.4 | 0.00 | 1.98 | 0.00 | 100 | 1009.9 |
| 20260507115835 | 5 | 171 | 0.0 | 3.2 | 0.00 | 1.98 | 0.00 | 100 | 1009.9 |
| 20260507114829 | 5 | 125 | 0.0 | 0.0 | 0.00 | 1.98 | 0.00 | 100 | 1009.7 |
| 20260507114557 | 5 | 125 | 0.0 | 0.0 | 0.00 | 1.98 | 0.00 | 100 | 1009.6 |
| 20260507114056 | 5 | 125 | 0.0 | 0.0 | 0.00 | 1.98 | 0.00 | 99 | 1009.7 |
| 20260507113324 | 5 | 125 | 0.0 | 0.0 | 0.00 | 1.98 | 0.00 | 99 | 1009.7 |
| 20260507113056 | 5 | 125 | 0.0 | 0.0 | 0.00 | 1.98 | 0.00 | 99 | 1009.8 |
| 20260507112326 | 5 | 125 | 0.0 | 0.0 | 0.00 | 1.98 | 0.00 | 99 | 1009.8 |
| 20260507111825 | 5 | 125 | 0.0 | 0.0 | 0.00 | 1.98 | 0.00 | 99 | 1009.8 |
| 20260507111551 | 5 | 125 | 0.0 | 0.0 | 0.00 | 1.98 | 0.00 | 99 | 1009.8 |
| 20260507110822 | 4 | 125 | 1.6 | 4.8 | 0.00 | 1.98 | 0.00 | 99 | 1009.6 |
| 20260507110320 | 5 | 125 | 1.6 | 4.8 | 0.00 | 1.98 | 0.00 | 99 | 1009.8 |
| 20260507105821 | 5 | 127 | 0.0 | 3.2 | 0.00 | 1.98 | 0.00 | 99 | 1009.8 |
| 20260507105321 | 5 | 127 | 0.0 | 3.2 | 0.00 | 1.98 | 0.00 | 99 | 1009.7 |
| 20260507104822 | 4 | 127 | 0.0 | 1.6 | 0.00 | 1.98 | 0.00 | 99 | 1009.7 |
| 20260507104321 | 4 | 127 | 0.0 | 0.0 | 0.00 | 1.98 | 0.00 | 99 | 1009.7 |
| 20260507103820 | 4 | 127 | 0.0 | 4.8 | 0.00 | 1.98 | 0.00 | 99 | 1009.7 |
| 20260507102821 | 4 | 351 | 0.0 | 0.0 | 0.00 | 1.98 | 0.00 | 99 | 1009.7 |
| 20260507102320 | 4 | 351 | 0.0 | 0.0 | 0.00 | 1.98 | 0.00 | 99 | 1009.6 |
| 20260507101819 | 4 | 351 | 0.0 | 0.0 | 0.00 | 1.98 | 0.00 | 99 | 1009.6 |
| 20260507101318 | 3 | 351 | 0.0 | 0.0 | 0.00 | 1.98 | 0.00 | 99 | 1009.5 |
| 20260507100817 | 3 | 351 | 0.0 | 0.0 | 0.00 | 1.98 | 0.00 | 99 | 1009.5 |
| 20260507100314 | 3 | 351 | 0.0 | 0.0 | 0.00 | 1.98 | 0.00 | 99 | 1009.4 |
| 20260507095812 | 3 | 351 | 0.0 | 0.0 | 0.00 | 1.98 | 0.00 | 99 | 1009.6 |
| 20260507095311 | 3 | 351 | 0.0 | 0.0 | 0.00 | 1.98 | 0.00 | 99 | 1009.7 |
| 20260507094811 | 3 | 351 | 0.0 | 0.0 | 0.00 | 1.98 | 0.00 | 99 | 1009.6 |
| 20260507094310 | 3 | 351 | 0.0 | 0.0 | 0.00 | 1.98 | 0.00 | 99 | 1009.6 |
| 20260507093808 | 3 | 351 | 0.0 | 0.0 | 0.00 | 1.98 | 0.00 | 99 | 1009.6 |
| 20260507093309 | 3 | 351 | 0.0 | 0.0 | 0.00 | 1.98 | 0.00 | 99 | 1009.6 |
| 20260507092802 | 3 | 351 | 0.0 | 0.0 | 0.00 | 1.98 | 0.00 | 99 | 1009.8 |
| 20260507092306 | 3 | 351 | 0.0 | 0.0 | 0.00 | 1.98 | 0.00 | 99 | 1009.7 |
| 20260507091804 | 3 | 351 | 0.0 | 0.0 | 0.00 | 1.98 | 0.00 | 99 | 1009.7 |
| 20260507091302 | 3 | 351 | 0.0 | 0.0 | 0.00 | 1.98 | 0.00 | 99 | 1009.8 |
| 20260507090800 | 3 | 351 | 0.0 | 0.0 | 0.00 | 1.98 | 0.00 | 99 | 1009.8 |
| 20260507090532 | 3 | 351 | 0.0 | 0.0 | 0.00 | 1.98 | 0.00 | 99 | 1009.9 |
| 20260507085756 | 3 | 351 | 0.0 | 0.0 | 0.00 | 1.98 | 0.00 | 99 | 1009.8 |
| 20260507085257 | 3 | 351 | 0.0 | 0.0 | 0.00 | 1.98 | 0.00 | 99 | 1009.7 |
| 20260507085028 | 3 | 351 | 0.0 | 0.0 | 0.00 | 1.98 | 0.00 | 99 | 1009.6 |
| 20260507084256 | 3 | 351 | 0.0 | 0.0 | 0.00 | 1.98 | 0.00 | 99 | 1009.6 |
| 20260507083255 | 3 | 351 | 0.0 | 0.0 | 0.00 | 1.98 | 0.00 | 99 | 1009.9 |
| 20260507082748 | 3 | 351 | 0.0 | 0.0 | 0.00 | 1.98 | 0.00 | 99 | 1009.8 |
| 20260507082518 | 3 | 351 | 0.0 | 0.0 | 0.00 | 1.98 | 0.00 | 99 | 1009.8 |
| 20260507081744 | 3 | 351 | 0.0 | 0.0 | 0.00 | 1.98 | 0.00 | 99 | 1009.7 |
| 20260507081242 | 3 | 351 | 0.0 | 0.0 | 0.00 | 1.98 | 0.00 | 99 | 1009.7 |
| 20260507080741 | 4 | 351 | 0.0 | 0.0 | 0.00 | 1.98 | 0.00 | 99 | 1009.6 |
| 20260507080236 | 4 | 351 | 0.0 | 0.0 | 0.00 | 1.98 | 0.00 | 99 | 1009.6 |
| 20260507075735 | 4 | 351 | 0.0 | 0.0 | 0.00 | 1.98 | 0.00 | 99 | 1009.8 |
| 20260507075232 | 4 | 351 | 0.0 | 0.0 | 0.00 | 1.98 | 0.00 | 99 | 1009.6 |
| 20260507074729 | 4 | 351 | 0.0 | 0.0 | 0.00 | 1.98 | 0.00 | 99 | 1009.5 |
| 20260507074230 | 4 | 351 | 0.0 | 0.0 | 0.00 | 1.98 | 0.00 | 99 | 1009.3 |
| 20260507073727 | 4 | 351 | 0.0 | 0.0 | 0.00 | 1.98 | 0.00 | 99 | 1009.3 |
| 20260507073228 | 5 | 351 | 0.0 | 0.0 | 0.00 | 1.98 | 0.00 | 99 | 1009.3 |
| 20260507072729 | 5 | 351 | 0.0 | 0.0 | 0.00 | 1.98 | 0.00 | 99 | 1009.4 |
| 20260507072226 | 5 | 351 | 0.0 | 0.0 | 0.00 | 1.98 | 0.00 | 99 | 1009.4 |
| 20260507071954 | 5 | 351 | 0.0 | 0.0 | 0.00 | 1.98 | 0.00 | 99 | 1009.3 |
| 20260507071225 | 5 | 351 | 0.0 | 0.0 | 0.00 | 1.98 | 0.00 | 99 | 1009.3 |
| 20260507070950 | 5 | 351 | 0.0 | 0.0 | 0.00 | 1.98 | 0.00 | 99 | 1009.4 |
| 20260507070217 | 5 | 351 | 0.0 | 0.0 | 0.00 | 1.98 | 0.00 | 99 | 1009.4 |
| 20260507065714 | 5 | 351 | 0.0 | 0.0 | 0.00 | 1.98 | 0.00 | 99 | 1009.2 |
| 20260507065211 | 5 | 351 | 0.0 | 0.0 | 0.00 | 1.98 | 0.00 | 99 | 1009.2 |
| 20260507064713 | 5 | 351 | 0.0 | 0.0 | 0.00 | 1.98 | 0.00 | 99 | 1009.2 |
| 20260507064209 | 5 | 351 | 0.0 | 0.0 | 0.00 | 1.98 | 0.00 | 99 | 1009.3 |
| 20260507063708 | 5 | 351 | 0.0 | 0.0 | 0.00 | 1.98 | 0.00 | 99 | 1009.2 |
| 20260507063209 | 5 | 351 | 0.0 | 0.0 | 0.00 | 1.98 | 0.00 | 99 | 1009.1 |
| 20260507062938 | 5 | 351 | 0.0 | 0.0 | 0.00 | 1.98 | 0.00 | 99 | 1009.1 |
| 20260507062206 | 5 | 351 | 0.0 | 0.0 | 0.00 | 1.98 | 0.00 | 99 | 1009.2 |
| 20260507061707 | 5 | 351 | 0.0 | 0.0 | 0.00 | 1.98 | 0.00 | 99 | 1009.3 |
| 20260507061201 | 5 | 351 | 0.0 | 1.6 | 0.00 | 1.98 | 0.00 | 99 | 1009.3 |
| 20260507060659 | 5 | 351 | 0.0 | 1.6 | 0.00 | 1.98 | 0.00 | 99 | 1009.4 |
| 20260507060426 | 5 | 351 | 1.6 | 3.2 | 0.00 | 1.98 | 0.00 | 99 | 1009.6 |
| 20260507055653 | 5 | 351 | 1.6 | 3.2 | 0.00 | 1.98 | 0.00 | 99 | 1009.4 |
| 20260507055156 | 5 | 351 | 0.0 | 3.2 | 0.00 | 1.98 | 0.00 | 98 | 1009.2 |
| 20260507054652 | 5 | 351 | 0.0 | 3.2 | 0.00 | 1.98 | 0.00 | 98 | 1009.4 |
| 20260507054423 | 5 | 351 | 0.0 | 1.6 | 0.00 | 1.98 | 0.00 | 98 | 1009.5 |
| 20260507053650 | 5 | 351 | 0.0 | 3.2 | 0.00 | 1.98 | 0.00 | 98 | 1009.7 |
| 20260507053150 | 5 | 351 | 0.0 | 3.2 | 0.00 | 1.98 | 0.00 | 98 | 1009.5 |
| 20260507052920 | 6 | 351 | 0.0 | 3.2 | 0.00 | 1.98 | 0.00 | 99 | 1009.4 |
| 20260507052419 | 6 | 351 | 1.6 | 3.2 | 0.00 | 1.98 | 0.00 | 98 | 1009.6 |
| 20260507051642 | 6 | 351 | 0.0 | 1.6 | 0.00 | 1.98 | 0.00 | 98 | 1009.6 |
| 20260507051141 | 6 | 351 | 0.0 | 4.8 | 0.00 | 1.98 | 0.00 | 99 | 1009.6 |
| 20260507050638 | 6 | 351 | 1.6 | 4.8 | 0.00 | 1.98 | 0.00 | 99 | 1009.4 |
| 20260507050406 | 6 | 355 | 0.0 | 1.6 | 0.00 | 1.98 | 0.00 | 99 | 1009.3 |
| 20260507045636 | 6 | 355 | 0.0 | 1.6 | 0.00 | 1.98 | 0.00 | 99 | 1009.3 |
| 20260507045130 | 6 | 355 | 0.0 | 1.6 | 0.00 | 1.98 | 0.00 | 99 | 1009.5 |
| 20260507044627 | 6 | 355 | 0.0 | 3.2 | 0.00 | 1.98 | 0.00 | 99 | 1009.5 |
| 20260507044127 | 6 | 355 | 1.6 | 3.2 | 0.00 | 1.98 | 0.00 | 99 | 1009.6 |
| 20260507043630 | 6 | 294 | 0.0 | 3.2 | 0.00 | 2.01 | 0.00 | 99 | 1009.8 |
| 20260507043127 | 6 | 293 | 0.0 | 1.6 | 0.00 | 2.01 | 0.00 | 99 | 1009.5 |
| 20260507042629 | 6 | 293 | 0.0 | 1.6 | 0.00 | 2.01 | 0.00 | 99 | 1009.5 |
| 20260507042127 | 6 | 293 | 0.0 | 0.0 | 0.00 | 2.01 | 0.00 | 99 | 1009.3 |
| 20260507041623 | 6 | 293 | 0.0 | 0.0 | 0.00 | 2.01 | 0.00 | 99 | 1009.2 |
| 20260507041122 | 6 | 293 | 0.0 | 0.0 | 0.00 | 2.01 | 0.00 | 99 | 1009.2 |
| 20260507040619 | 6 | 293 | 0.0 | 0.0 | 0.00 | 2.01 | 0.00 | 99 | 1009.3 |
| 20260507040119 | 7 | 293 | 0.0 | 0.0 | 0.00 | 2.01 | 0.00 | 99 | 1009.2 |
| 20260507035617 | 7 | 293 | 0.0 | 0.0 | 0.00 | 2.01 | 2.01 | 99 | 1009.1 |
| 20260507035117 | 7 | 293 | 0.0 | 0.0 | 0.03 | 2.01 | 2.01 | 99 | 1009.2 |
| 20260507034616 | 6 | 293 | 0.0 | 0.0 | 0.03 | 2.01 | 2.01 | 99 | 1009.4 |
| 20260507034115 | 6 | 293 | 0.0 | 0.0 | 0.03 | 2.01 | 2.01 | 99 | 1009.3 |
| 20260507033613 | 6 | 293 | 0.0 | 0.0 | 0.03 | 2.01 | 2.01 | 99 | 1009.5 |
| 20260507033111 | 6 | 293 | 0.0 | 0.0 | 0.03 | 2.01 | 2.01 | 99 | 1009.5 |
| 20260507032612 | 7 | 293 | 0.0 | 0.0 | 0.03 | 2.01 | 2.01 | 99 | 1009.6 |
| 20260507032116 | 7 | 293 | 0.0 | 0.0 | 0.03 | 2.01 | 2.01 | 99 | 1009.8 |
| 20260507031613 | 7 | 293 | 0.0 | 0.0 | 0.03 | 2.01 | 2.01 | 99 | 1009.7 |
| 20260507031108 | 7 | 293 | 0.0 | 0.0 | 0.03 | 2.01 | 2.01 | 99 | 1009.5 |
| 20260507030838 | 7 | 293 | 0.0 | 0.0 | 0.05 | 2.01 | 2.01 | 99 | 1009.5 |
| 20260507030107 | 7 | 293 | 0.0 | 0.0 | 0.05 | 2.01 | 2.01 | 99 | 1009.6 |
| 20260507025607 | 7 | 293 | 0.0 | 0.0 | 0.05 | 2.01 | 2.01 | 99 | 1009.8 |
| 20260507025339 | 7 | 293 | 0.0 | 0.0 | 0.05 | 1.98 | 1.98 | 99 | 1009.8 |
| 20260507024609 | 7 | 293 | 0.0 | 0.0 | 0.05 | 1.98 | 1.98 | 99 | 1009.8 |
| 20260507024104 | 7 | 293 | 0.0 | 0.0 | 0.05 | 1.98 | 1.98 | 99 | 1009.9 |
| 20260507023603 | 7 | 293 | 0.0 | 0.0 | 0.05 | 1.98 | 1.98 | 99 | 1009.9 |
| 20260507023103 | 7 | 293 | 0.0 | 0.0 | 0.05 | 1.98 | 1.98 | 99 | 1009.8 |
| 20260507022604 | 7 | 293 | 0.0 | 0.0 | 0.08 | 1.98 | 1.98 | 99 | 1009.9 |
| 20260507022103 | 7 | 293 | 0.0 | 0.0 | 0.08 | 1.98 | 1.98 | 99 | 1009.9 |
| 20260507021835 | 7 | 293 | 0.0 | 0.0 | 0.10 | 1.98 | 1.98 | 99 | 1010.0 |
| 20260507021103 | 7 | 293 | 0.0 | 0.0 | 0.10 | 1.98 | 1.98 | 99 | 1009.9 |
| 20260507020605 | 7 | 293 | 0.0 | 0.0 | 0.08 | 1.96 | 1.96 | 99 | 1009.7 |
| 20260507020333 | 7 | 293 | 0.0 | 0.0 | 0.10 | 1.96 | 1.96 | 99 | 1009.9 |
| 20260507015602 | 7 | 293 | 0.0 | 0.0 | 0.10 | 1.96 | 1.96 | 99 | 1009.9 |
| 20260507015333 | 7 | 293 | 0.0 | 0.0 | 0.08 | 1.93 | 1.93 | 99 | 1009.9 |
| 20260507014559 | 7 | 293 | 0.0 | 0.0 | 0.10 | 1.93 | 1.93 | 98 | 1010.0 |
| 20260507014057 | 7 | 293 | 0.0 | 0.0 | 0.10 | 1.93 | 1.93 | 98 | 1009.8 |
| 20260507013558 | 7 | 293 | 0.0 | 1.6 | 0.13 | 1.93 | 1.93 | 98 | 1009.9 |
| 20260507013051 | 7 | 293 | 0.0 | 1.6 | 0.10 | 1.91 | 1.93 | 98 | 1009.9 |
| 20260507012552 | 7 | 293 | 0.0 | 1.6 | 0.13 | 1.91 | 1.91 | 98 | 1009.8 |
| 20260507012051 | 7 | 293 | 0.0 | 4.8 | 0.13 | 1.91 | 1.91 | 98 | 1009.6 |
| 20260507011552 | 7 | 293 | 0.0 | 4.8 | 0.10 | 1.88 | 1.88 | 98 | 1009.8 |
| 20260507011049 | 7 | 30 | 0.0 | 1.6 | 0.10 | 1.88 | 1.88 | 98 | 1009.8 |
| 20260507010550 | 7 | 30 | 0.0 | 1.6 | 0.10 | 1.88 | 1.88 | 98 | 1009.4 |
| 20260507010043 | 7 | 30 | 0.0 | 1.6 | 0.08 | 1.85 | 1.85 | 98 | 1009.2 |
| 20260507005812 | 7 | 30 | 0.0 | 1.6 | 0.08 | 1.85 | 1.85 | 98 | 1009.3 |
| 20260507005041 | 7 | 30 | 1.6 | 3.2 | 0.08 | 1.85 | 1.85 | 98 | 1009.2 |
| 20260507004542 | 7 | 30 | 1.6 | 4.8 | 0.05 | 1.83 | 1.83 | 98 | 1009.1 |
| 20260507004038 | 7 | 30 | 1.6 | 4.8 | 0.05 | 1.83 | 1.83 | 98 | 1009.2 |
| 20260507003539 | 7 | 312 | 1.6 | 4.8 | 0.03 | 1.80 | 1.80 | 98 | 1009.1 |
| 20260507003309 | 7 | 313 | 1.6 | 4.8 | 0.03 | 1.80 | 1.80 | 98 | 1009.0 |
| 20260507002536 | 7 | 271 | 1.6 | 4.8 | 0.00 | 1.78 | 1.78 | 98 | 1008.9 |
| 20260507002037 | 7 | 269 | 1.6 | 4.8 | 0.00 | 1.78 | 1.78 | 98 | 1008.8 |
| 20260507001806 | 7 | 260 | 1.6 | 6.4 | 0.00 | 1.78 | 1.78 | 98 | 1008.7 |
| 20260507001032 | 7 | 350 | 1.6 | 6.4 | 0.00 | 1.78 | 1.78 | 98 | 1008.7 |
| 20260507000533 | 7 | 339 | 1.6 | 6.4 | 0.00 | 1.78 | 1.78 | 98 | 1008.5 |
| 20260507000029 | 7 | 27 | 1.6 | 4.8 | 0.00 | 1.78 | 1.78 | 98 | 1008.5 |
| 20260506235529 | 7 | 27 | 0.0 | 3.2 | 0.00 | 1.78 | 1.78 | 98 | 1008.4 |
| 20260506235257 | 7 | 27 | 1.6 | 4.8 | 0.00 | 1.78 | 1.78 | 98 | 1008.3 |
| 20260506234526 | 7 | 27 | 1.6 | 4.8 | 0.00 | 1.78 | 1.78 | 98 | 1008.3 |
| 20260506234026 | 8 | 111 | 0.0 | 3.2 | 0.00 | 1.78 | 1.78 | 98 | 1008.3 |
| 20260506233526 | 8 | 111 | 0.0 | 3.2 | 0.00 | 1.78 | 1.78 | 99 | 1008.3 |
| 20260506233252 | 8 | 111 | 1.6 | 3.2 | 0.00 | 1.78 | 1.78 | 99 | 1008.2 |
| 20260506232519 | 8 | 111 | 0.0 | 3.2 | 0.00 | 1.78 | 1.78 | 99 | 1008.2 |
| 20260506232019 | 8 | 111 | 0.0 | 3.2 | 0.00 | 1.78 | 1.78 | 99 | 1008.0 |
| 20260506231518 | 8 | 111 | 0.0 | 3.2 | 0.00 | 1.78 | 1.78 | 99 | 1008.0 |
| 20260506231016 | 8 | 111 | 0.0 | 3.2 | 0.00 | 1.78 | 1.78 | 99 | 1007.9 |
| 20260506230518 | 8 | 111 | 0.0 | 3.2 | 0.00 | 1.78 | 1.78 | 99 | 1008.0 |
| 20260506230014 | 8 | 111 | 0.0 | 3.2 | 0.00 | 1.78 | 1.78 | 99 | 1007.9 |
| 20260506225514 | 8 | 111 | 1.6 | 14.5 | 0.00 | 1.78 | 1.78 | 99 | 1007.8 |
| 20260506225015 | 8 | 111 | 1.6 | 14.5 | 0.00 | 1.78 | 1.78 | 99 | 1007.9 |
| 20260506224513 | 8 | 31 | 0.0 | 3.2 | 0.00 | 1.78 | 1.78 | 99 | 1007.8 |
| 20260506224010 | 8 | 31 | 0.0 | 0.0 | 0.00 | 1.78 | 1.78 | 99 | 1007.8 |
| 20260506223007 | 8 | 31 | 1.6 | 6.4 | 0.00 | 1.78 | 1.78 | 99 | 1007.6 |
| 20260506222506 | 8 | 31 | 1.6 | 6.4 | 0.00 | 1.78 | 1.78 | 99 | 1007.6 |
| 20260506222005 | 8 | 93 | 3.2 | 11.3 | 0.00 | 1.78 | 1.78 | 99 | 1007.4 |
| 20260506221504 | 8 | 92 | 3.2 | 11.3 | 0.05 | 1.78 | 1.78 | 98 | 1007.2 |
| 20260506221003 | 8 | 75 | 3.2 | 6.4 | 0.08 | 1.78 | 1.78 | 98 | 1007.2 |
| 20260506220505 | 8 | 88 | 3.2 | 6.4 | 0.10 | 1.78 | 1.78 | 99 | 1007.2 |
| 20260506215958 | 8 | 92 | 1.6 | 6.4 | 0.13 | 1.78 | 1.78 | 98 | 1007.1 |
| 20260506215456 | 8 | 62 | 1.6 | 6.4 | 0.15 | 1.78 | 1.78 | 98 | 1007.1 |
| 20260506214954 | 8 | 64 | 1.6 | 8.0 | 0.25 | 1.78 | 1.78 | 98 | 1007.0 |
| 20260506214452 | 8 | 65 | 3.2 | 11.3 | 0.28 | 1.78 | 1.78 | 98 | 1006.9 |
| 20260506213952 | 9 | 68 | 4.8 | 11.3 | 0.28 | 1.78 | 1.78 | 98 | 1006.9 |
| 20260506213448 | 9 | 29 | 3.2 | 11.3 | 0.30 | 1.78 | 1.78 | 98 | 1006.9 |
| 20260506212947 | 9 | 60 | 3.2 | 12.9 | 0.30 | 1.78 | 1.78 | 98 | 1006.9 |
| 20260506212449 | 10 | 107 | 3.2 | 12.9 | 0.30 | 1.78 | 1.78 | 98 | 1006.8 |
| 20260506211948 | 10 | 90 | 6.4 | 19.3 | 0.30 | 1.78 | 1.78 | 98 | 1006.7 |
| 20260506211446 | 10 | 65 | 6.4 | 19.3 | 0.25 | 1.75 | 1.73 | 98 | 1006.6 |
| 20260506210948 | 10 | 94 | 6.4 | 12.9 | 0.23 | 1.78 | 1.70 | 98 | 1006.4 |
| 20260506210441 | 11 | 132 | 4.8 | 11.3 | 0.20 | 1.78 | 1.68 | 98 | 1006.1 |
| 20260506210213 | 11 | 137 | 4.8 | 11.3 | 0.20 | 1.78 | 1.65 | 98 | 1006.1 |
| 20260506205443 | 11 | 156 | 6.4 | 14.5 | 0.18 | 1.75 | 1.63 | 97 | 1005.9 |
| 20260506204942 | 12 | 125 | 4.8 | 14.5 | 0.08 | 1.65 | 1.52 | 97 | 1006.0 |
| 20260506204443 | 14 | 94 | 3.2 | 11.3 | 0.05 | 1.65 | 1.50 | 99 | 1005.8 |
| 20260506203943 | 15 | 138 | 1.6 | 4.8 | 0.05 | 1.65 | 1.50 | 99 | 1005.8 |
| 20260506203443 | 15 | 105 | 1.6 | 3.2 | 0.03 | 1.68 | 1.47 | 99 | 1005.8 |
| 20260506202938 | 15 | 105 | 0.0 | 3.2 | 0.03 | 1.70 | 1.47 | 99 | 1005.7 |
| 20260506202433 | 15 | 105 | 0.0 | 3.2 | 0.03 | 1.70 | 1.47 | 100 | 1005.8 |
| 20260506201933 | 15 | 105 | 0.0 | 3.2 | 0.05 | 1.70 | 1.47 | 99 | 1005.8 |
| 20260506201704 | 15 | 98 | 1.6 | 6.4 | 0.05 | 1.70 | 1.47 | 99 | 1005.8 |
| 20260506201205 | 15 | 98 | 1.6 | 6.4 | 0.05 | 1.70 | 1.47 | 99 | 1005.9 |
| 20260506200434 | 15 | 151 | 1.6 | 4.8 | 0.05 | 1.70 | 1.47 | 100 | 1005.9 |
| 20260506195935 | 15 | 344 | 1.6 | 4.8 | 0.03 | 1.68 | 1.45 | 100 | 1006.0 |
| 20260506195429 | 15 | 240 | 1.6 | 4.8 | 0.03 | 1.68 | 1.45 | 100 | 1006.0 |
| 20260506194930 | 15 | 5 | 1.6 | 4.8 | 0.03 | 1.68 | 1.45 | 100 | 1006.0 |
| 20260506194429 | 15 | 60 | 1.6 | 4.8 | 0.03 | 1.68 | 1.45 | 100 | 1006.0 |
| 20260506193931 | 15 | 60 | 1.6 | 4.8 | 0.03 | 1.68 | 1.45 | 100 | 1006.1 |
| 20260506193431 | 14 | 136 | 1.6 | 3.2 | 0.05 | 1.68 | 1.45 | 100 | 1006.2 |
| 20260506192930 | 14 | 136 | 1.6 | 3.2 | 0.05 | 1.68 | 1.45 | 100 | 1006.2 |
| 20260506192425 | 14 | 91 | 1.6 | 3.2 | 0.08 | 1.68 | 1.45 | 100 | 1006.3 |
| 20260506191927 | 14 | 91 | 1.6 | 3.2 | 0.08 | 1.65 | 1.42 | 99 | 1006.2 |
| 20260506191425 | 14 | 91 | 0.0 | 3.2 | 0.10 | 1.65 | 1.42 | 99 | 1006.3 |
| 20260506190925 | 14 | 91 | 0.0 | 3.2 | 0.15 | 1.65 | 1.42 | 99 | 1006.4 |
| 20260506190657 | 14 | 91 | 1.6 | 4.8 | 0.18 | 1.65 | 1.42 | 99 | 1006.5 |
| 20260506185926 | 14 | 91 | 1.6 | 4.8 | 0.23 | 1.65 | 1.42 | 99 | 1006.6 |
| 20260506185427 | 14 | 91 | 1.6 | 4.8 | 0.25 | 1.65 | 1.42 | 99 | 1006.7 |
| 20260506185157 | 14 | 302 | 1.6 | 3.2 | 0.28 | 1.65 | 1.42 | 99 | 1006.7 |
| 20260506184424 | 14 | 300 | 1.6 | 3.2 | 0.33 | 1.65 | 1.42 | 99 | 1006.7 |
| 20260506183922 | 13 | 300 | 1.6 | 3.2 | 0.43 | 1.65 | 1.42 | 99 | 1006.7 |
| 20260506183422 | 13 | 300 | 1.6 | 3.2 | 0.61 | 1.63 | 1.40 | 99 | 1006.7 |
| 20260506182920 | 14 | 300 | 0.0 | 3.2 | 0.74 | 1.63 | 1.40 | 99 | 1006.8 |
| 20260506182650 | 13 | 300 | 0.0 | 1.6 | 0.94 | 1.60 | 1.37 | 99 | 1006.8 |
| 20260506182148 | 13 | 300 | 0.0 | 4.8 | 1.07 | 1.57 | 1.35 | 99 | 1006.9 |
| 20260506181648 | 13 | 300 | 1.6 | 4.8 | 1.09 | 1.55 | 1.32 | 99 | 1007.0 |
| 20260506181147 | 14 | 298 | 0.0 | 3.2 | 1.07 | 1.50 | 1.27 | 99 | 1007.0 |
| 20260506180412 | 14 | 298 | 1.6 | 6.4 | 1.04 | 1.47 | 1.24 | 99 | 1007.0 |
| 20260506175911 | 13 | 298 | 3.2 | 6.4 | 1.02 | 1.42 | 1.19 | 99 | 1007.0 |
| 20260506175411 | 13 | 19 | 1.6 | 4.8 | 0.99 | 1.40 | 1.17 | 99 | 1007.1 |
| 20260506174909 | 13 | 19 | 1.6 | 4.8 | 0.97 | 1.37 | 1.14 | 99 | 1007.1 |
| 20260506174410 | 13 | 19 | 1.6 | 4.8 | 0.94 | 1.32 | 1.09 | 99 | 1007.3 |
| 20260506173904 | 13 | 296 | 1.6 | 4.8 | 0.84 | 1.22 | 1.02 | 98 | 1007.6 |
| 20260506173634 | 13 | 296 | 1.6 | 4.8 | 0.64 | 1.02 | 0.79 | 98 | 1007.6 |
| 20260506172903 | 14 | 296 | 3.2 | 6.4 | 0.51 | 0.89 | 0.69 | 98 | 1007.7 |
| 20260506172637 | 14 | 308 | 3.2 | 6.4 | 0.30 | 0.66 | 0.43 | 98 | 1007.6 |
| 20260506171904 | 14 | 269 | 1.6 | 4.8 | 0.15 | 0.51 | 0.30 | 98 | 1007.8 |
| 20260506171634 | 14 | 250 | 1.6 | 3.2 | 0.10 | 0.46 | 0.23 | 98 | 1007.6 |
| 20260506170905 | 14 | 250 | 0.0 | 3.2 | 0.08 | 0.43 | 0.20 | 98 | 1007.6 |
| 20260506170628 | 14 | 250 | 0.0 | 6.4 | 0.08 | 0.43 | 0.20 | 98 | 1007.7 |
| 20260506165857 | 14 | 250 | 1.6 | 6.4 | 0.05 | 0.41 | 0.18 | 98 | 1007.7 |
| 20260506165355 | 14 | 103 | 0.0 | 4.8 | 0.05 | 0.41 | 0.18 | 98 | 1007.8 |
| 20260506165126 | 14 | 230 | 0.0 | 3.2 | 0.03 | 0.38 | 0.15 | 98 | 1007.9 |
| 20260506164355 | 14 | 230 | 1.6 | 4.8 | 0.03 | 0.38 | 0.15 | 99 | 1008.0 |
| 20260506163855 | 13 | 248 | 1.6 | 4.8 | 0.03 | 0.38 | 0.15 | 99 | 1008.0 |
| 20260506163354 | 13 | 253 | 1.6 | 4.8 | 0.05 | 0.38 | 0.15 | 99 | 1008.0 |
| 20260506162851 | 13 | 304 | 1.6 | 4.8 | 0.05 | 0.38 | 0.15 | 99 | 1007.9 |
| 20260506162352 | 13 | 355 | 1.6 | 4.8 | 0.03 | 0.36 | 0.13 | 99 | 1007.9 |
| 20260506161850 | 13 | 355 | 0.0 | 4.8 | 0.03 | 0.36 | 0.13 | 99 | 1008.0 |
| 20260506161348 | 13 | 100 | 0.0 | 1.6 | 0.05 | 0.36 | 0.13 | 99 | 1008.2 |
| 20260506160850 | 13 | 100 | 0.0 | 1.6 | 0.05 | 0.36 | 0.13 | 99 | 1008.3 |
| 20260506160348 | 13 | 100 | 0.0 | 1.6 | 0.05 | 0.36 | 0.13 | 99 | 1008.3 |
| 20260506155845 | 13 | 100 | 0.0 | 1.6 | 0.05 | 0.36 | 0.13 | 99 | 1008.5 |
| 20260506155342 | 13 | 100 | 0.0 | 1.6 | 0.05 | 0.36 | 0.13 | 99 | 1008.6 |
| 20260506155113 | 13 | 100 | 0.0 | 1.6 | 0.08 | 0.36 | 0.13 | 99 | 1008.6 |
| 20260506154614 | 13 | 100 | 0.0 | 1.6 | 0.08 | 0.36 | 0.13 | 99 | 1008.7 |
| 20260506154116 | 13 | 100 | 0.0 | 1.6 | 0.10 | 0.36 | 0.13 | 99 | 1008.8 |
| 20260506153336 | 13 | 100 | 0.0 | 1.6 | 0.08 | 0.33 | 0.10 | 98 | 1009.0 |
| 20260506152836 | 13 | 100 | 1.6 | 1.6 | 0.08 | 0.33 | 0.10 | 98 | 1009.0 |
| 20260506152333 | 13 | 100 | 0.0 | 1.6 | 0.08 | 0.33 | 0.10 | 98 | 1009.1 |
| 20260506151831 | 13 | 100 | 0.0 | 1.6 | 0.08 | 0.33 | 0.10 | 98 | 1009.2 |
| 20260506151603 | 13 | 100 | 0.0 | 1.6 | 0.05 | 0.30 | 0.08 | 98 | 1009.2 |
| 20260506150825 | 13 | 100 | 0.0 | 1.6 | 0.05 | 0.30 | 0.08 | 98 | 1009.3 |
| 20260506150556 | 13 | 100 | 0.0 | 1.6 | 0.05 | 0.30 | 0.08 | 98 | 1009.3 |
| 20260506145821 | 13 | 100 | 0.0 | 1.6 | 0.05 | 0.30 | 0.08 | 98 | 1009.2 |
| 20260506145319 | 13 | 100 | 0.0 | 1.6 | 0.03 | 0.28 | 0.08 | 98 | 1009.4 |
| 20260506144821 | 13 | 100 | 0.0 | 1.6 | 0.03 | 0.28 | 0.05 | 97 | 1009.3 |
| 20260506144313 | 13 | 100 | 0.0 | 1.6 | 0.03 | 0.28 | 0.05 | 98 | 1009.3 |
| 20260506143811 | 13 | 100 | 0.0 | 1.6 | 0.00 | 0.25 | 0.03 | 98 | 1009.3 |
| 20260506143539 | 13 | 100 | 0.0 | 1.6 | 0.00 | 0.25 | 0.03 | 98 | 1009.4 |
| 20260506143038 | 13 | 100 | 1.6 | 3.2 | 0.00 | 0.25 | 0.03 | 98 | 1009.4 |
| 20260506142309 | 13 | 100 | 1.6 | 3.2 | 0.00 | 0.25 | 0.03 | 98 | 1009.2 |
| 20260506141804 | 13 | 100 | 0.0 | 1.6 | 0.00 | 0.25 | 0.03 | 98 | 1009.2 |
| 20260506141302 | 13 | 100 | 0.0 | 1.6 | 0.00 | 0.25 | 0.03 | 99 | 1009.3 |
| 20260506140800 | 13 | 100 | 0.0 | 1.6 | 0.00 | 0.25 | 0.03 | 98 | 1009.4 |
| 20260506140301 | 13 | 100 | 1.6 | 3.2 | 0.00 | 0.25 | 0.03 | 98 | 1009.3 |
| 20260506140031 | 13 | 100 | 1.6 | 3.2 | 0.00 | 0.25 | 0.03 | 98 | 1009.4 |
| 20260506135302 | 13 | 100 | 0.0 | 1.6 | 0.00 | 0.25 | 0.03 | 98 | 1009.3 |
| 20260506134800 | 12 | 100 | 0.0 | 1.6 | 0.00 | 0.25 | 0.03 | 98 | 1009.2 |